Franklin, PA

10:11 PM EST on December 08, 2019 (GMT -0500)
Venango Regional

Weather History for KFKL - October, 2019

Change the Weather History Date:

Monday, October 28, 2019

  Actual Average Record
Temperature  
Mean Temperature 50 °F -  
Max Temperature 63 °F 59 °F 80 °F (1963)
Min Temperature 37 °F 35 °F 16 °F (1936)
Degree Days  
Heating Degree Days 15    
Moisture  
Dew Point 44 °F    
Average Humidity 88    
Maximum Humidity 100    
Minimum Humidity 50    
Precipitation  
Precipitation 0.00 in - - ()
Sea Level Pressure  
Sea Level Pressure 30.13 in    
Wind  
Wind Speed 5 mph (South)    
Max Wind Speed 9 mph    
Max Gust Speed -    
Visibility 5 miles    
Events Fog    
Averages and records for this station are not official NWS values.
T = Trace of Precipitation, MM = Missing Value Source: NWS Daily Summary

Daily Weather History Graph

Daily Weather History Graph

Search for Another Location

Airport or City:

Astronomy

Oct. 28, 2019 Rise Set
Actual Time 7:45 AM EDT 6:19 PM EDT
Civil Twilight 7:17 AM EDT 6:48 PM EDT
Nautical Twilight 6:44 AM EDT 7:20 PM EDT
Astronomical Twilight 6:12 AM EDT 7:52 PM EDT
Moon 8:05 AM EDT (10/28) 7:04 PM EDT (10/28)
Length of Visible Light 11h 30m
Length of Day
10h 34m
New Moon, 0% of the Moon is Illuminated
Oct 28
New Moon
Nov 4
First Quarter
Nov 12
Full
Nov 19
Last Quarter
Nov 26
New

Hourly Weather History & Observations

Time (EDT) Temp. Windchill Dew Point Humidity Pressure Visibility Wind Dir Wind Speed Gust Speed Precip Events Conditions
12:56 AM 45.0 °F 43.5 °F 43.0 °F 93% 30.09 in 10.0 mi SSW 3.5 mph - N/A   Clear
1:56 AM 44.1 °F 42.5 °F 43.0 °F 96% 30.11 in 2.0 mi SSW 3.5 mph - N/A   Clear
2:08 AM 44.6 °F 42.2 °F 44.6 °F 100% 30.09 in 5.0 mi SSW 4.6 mph - N/A   Clear
2:56 AM 43.0 °F 39.5 °F 43.0 °F 100% 30.12 in 7.0 mi SSW 5.8 mph - N/A   Clear
3:56 AM 43.0 °F 39.5 °F 43.0 °F 100% 30.12 in 4.0 mi SSW 5.8 mph - N/A   Clear
4:03 AM 42.8 °F 39.3 °F 42.8 °F 100% 30.10 in 1.8 mi SSW 5.8 mph - N/A   Clear
4:08 AM 42.8 °F 39.3 °F 42.8 °F 100% 30.10 in 0.8 mi SSW 5.8 mph - N/A   Clear
4:10 AM 42.8 °F 40.1 °F 42.8 °F 100% 30.10 in 0.5 mi SW 4.6 mph - N/A Fog Fog
4:28 AM 42.8 °F 39.3 °F 42.8 °F 100% 30.10 in 0.8 mi SW 5.8 mph - N/A   Mist
4:33 AM 42.8 °F 39.3 °F 42.8 °F 100% 30.10 in 1.2 mi SW 5.8 mph - N/A   Partly Cloudy
4:48 AM 42.8 °F 39.3 °F 42.8 °F 100% 30.11 in 1.0 mi SSW 5.8 mph - N/A   Clear
4:56 AM 43.0 °F 40.3 °F 42.1 °F 97% 30.13 in 1.2 mi SW 4.6 mph - N/A   Clear
5:07 AM 42.8 °F 39.3 °F 42.8 °F 100% 30.11 in 0.8 mi SSW 5.8 mph - N/A   Clear
5:27 AM 42.8 °F 40.1 °F 42.8 °F 100% 30.11 in 0.8 mi SW 4.6 mph - N/A   Mist
5:34 AM 42.8 °F 39.3 °F 42.8 °F 100% 30.11 in 0.5 mi SW 5.8 mph - N/A Fog Fog
5:56 AM 42.1 °F 38.4 °F 42.1 °F 100% 30.15 in 0.5 mi SW 5.8 mph - N/A Fog Fog
6:56 AM 39.9 °F 37.8 °F 39.9 °F 100% 30.15 in 0.2 mi SSW 3.5 mph - N/A Fog Fog
7:56 AM 37.9 °F 34.4 °F 37.9 °F 100% 30.17 in 0.2 mi SSW 4.6 mph - N/A Fog Fog
8:56 AM 39.9 °F 37.8 °F 39.9 °F 100% 30.18 in 0.2 mi ESE 3.5 mph - N/A Fog Fog
9:56 AM 44.1 °F 41.5 °F 44.1 °F 100% 30.18 in 0.2 mi ESE 4.6 mph - N/A Fog Fog
10:34 AM 46.4 °F 45.2 °F 46.4 °F 100% 30.17 in 0.8 mi Variable 3.5 mph - N/A   Overcast
10:48 AM 46.4 °F 44.3 °F 46.4 °F 100% 30.17 in 2.5 mi South 4.6 mph - N/A   Overcast
10:56 AM 46.0 °F 42.5 °F 46.0 °F 100% 30.19 in 5.0 mi SE 6.9 mph - N/A   Overcast
11:23 AM 48.2 °F - 46.4 °F 93% 30.17 in 10.0 mi SE 5.8 mph - N/A   Scattered Clouds
11:56 AM 51.1 °F - 48.0 °F 89% 30.19 in 10.0 mi East 4.6 mph - N/A   Clear
12:56 PM 55.9 °F - 45.0 °F 67% 30.17 in 10.0 mi South 9.2 mph - N/A   Clear
1:56 PM 59.0 °F - 46.0 °F 62% 30.14 in 10.0 mi SE 9.2 mph - N/A   Clear
2:56 PM 61.0 °F - 45.0 °F 56% 30.12 in 10.0 mi SE 6.9 mph - N/A   Clear
3:56 PM 62.1 °F - 44.1 °F 52% 30.12 in 10.0 mi SSE 8.1 mph - N/A   Clear
4:56 PM 63.0 °F - 44.1 °F 50% 30.12 in 10.0 mi SSE 5.8 mph - N/A   Clear
5:56 PM 61.0 °F - 44.1 °F 54% 30.12 in 10.0 mi ESE 3.5 mph - N/A   Clear
6:56 PM 57.0 °F - 44.1 °F 62% 30.13 in 10.0 mi Calm Calm - N/A   Clear
7:56 PM 54.0 °F - 44.1 °F 69% 30.13 in 10.0 mi Calm Calm - N/A   Clear
8:56 PM 51.1 °F - 43.0 °F 74% 30.12 in 10.0 mi East 4.6 mph - N/A   Clear
9:56 PM 48.9 °F - 44.1 °F 83% 30.12 in 10.0 mi ESE 4.6 mph - N/A   Clear
10:56 PM 48.0 °F - 43.0 °F 83% 30.12 in 10.0 mi SE 4.6 mph - N/A   Clear
11:56 PM 48.0 °F - 42.1 °F 80% 30.10 in 10.0 mi SE 8.1 mph - N/A   Clear